Location: Unspecified
(48.2082°N, 0.0000°E)
Time: 20:34:21
(UTC+00:00)

Vanguard 1 - Pass Details

Date: 25 June 2019
Orbit: 653 x 3830 km, 34.3° (Epoch: 18 July)

Event Time Altitude Azimuth Distance (km) Brightness Sun altitude
Rises 04:26:59 0° 256° (WSW) 7,268 13.9 2.8°
Reaches altitude 10° 04:32:49 10° 251° (WSW) 5,803 13.4 3.6°
Maximum altitude 04:46:57 40° 190° (S) 2,642 12.0 5.6°
Drops below altitude 10° 04:55:07 10° 124° (SE) 3,390 13.3 6.8°
Sets 04:57:35 0° 116° (ESE) 4,063 13.8 7.2°
